| time (UTC) | temp F | wind direction | speed MPH | gust MPH | rain 1hr in | rain 24hr in | rain mn in | humidity % | barometer mb |
| 20260508065309 | 83 | 298 | 0.0 | 0.0 | 0.00 | 0.00 | 0.00 | 100 | 1012.2 |
| 20260508064809 | 83 | 298 | 0.0 | 5.0 | 0.00 | 0.00 | 0.00 | 100 | 1012.2 |
| 20260508064309 | 83 | 296 | 3.0 | 3.0 | 0.00 | 0.00 | 0.00 | 100 | 1012.2 |
| 20260508063809 | 83 | 358 | 0.0 | 6.0 | 0.00 | 0.00 | 0.00 | 100 | 1012.3 |
| 20260508063309 | 83 | 4 | 0.0 | 3.0 | 0.00 | 0.00 | 0.00 | 100 | 1012.3 |
| 20260508062809 | 83 | 33 | 0.0 | 7.0 | 0.00 | 0.00 | 0.00 | 100 | 1012.3 |
| 20260508062309 | 83 | 330 | 0.0 | 5.0 | 0.00 | 0.00 | 0.00 | 100 | 1012.4 |
| 20260508061809 | 83 | 12 | 0.0 | 1.0 | 0.00 | 0.00 | 0.00 | 100 | 1012.4 |
| 20260508061309 | 83 | 317 | 0.0 | 0.0 | 0.00 | 0.00 | 0.00 | 100 | 1012.4 |
| 20260508060809 | 83 | 317 | 0.0 | 1.0 | 0.00 | 0.00 | 0.00 | 100 | 1012.4 |
| 20260508060309 | 83 | 243 | 0.0 | 1.0 | 0.00 | 0.00 | 0.00 | 100 | 1012.4 |
| 20260508055809 | 83 | 337 | 0.0 | 6.0 | 0.00 | 0.00 | 0.00 | 100 | 1012.5 |
| 20260508055309 | 83 | 299 | 2.0 | 4.0 | 0.00 | 0.00 | 0.00 | 100 | 1012.6 |
| 20260508054809 | 83 | 312 | 0.0 | 0.0 | 0.00 | 0.00 | 0.00 | 100 | 1012.7 |
| 20260508054309 | 83 | 312 | 0.0 | 1.0 | 0.00 | 0.00 | 0.00 | 100 | 1012.8 |
| 20260508053809 | 83 | 284 | 0.0 | 2.0 | 0.00 | 0.00 | 0.00 | 100 | 1012.9 |
| 20260508053309 | 83 | 343 | 0.0 | 0.0 | 0.00 | 0.00 | 0.00 | 100 | 1012.9 |
| 20260508052809 | 82 | 343 | 0.0 | 1.0 | 0.00 | 0.00 | 0.00 | 100 | 1012.9 |
| 20260508052309 | 82 | 343 | 0.0 | 0.0 | 0.00 | 0.00 | 0.00 | 100 | 1012.9 |
| 20260508051809 | 82 | 11 | 0.0 | 6.0 | 0.00 | 0.00 | 0.00 | 100 | 1012.9 |
| 20260508051309 | 82 | 157 | 0.0 | 0.0 | 0.00 | 0.00 | 0.00 | 100 | 1012.9 |
| 20260508050809 | 82 | 157 | 0.0 | 0.0 | 0.00 | 0.00 | 0.00 | 100 | 1013.0 |
| 20260508050309 | 82 | 157 | 0.0 | 0.0 | 0.00 | 0.00 | 0.00 | 100 | 1013.0 |
| 20260508045809 | 82 | 157 | 0.0 | 0.0 | 0.00 | 0.00 | 0.00 | 100 | 1013.0 |
| 20260508045309 | 82 | 157 | 0.0 | 0.0 | 0.00 | 0.00 | 0.00 | 100 | 1012.8 |
| 20260508044809 | 82 | 157 | 0.0 | 0.0 | 0.00 | 0.00 | 0.00 | 100 | 1013.0 |
| 20260508044309 | 82 | 157 | 0.0 | 3.0 | 0.00 | 0.00 | 0.00 | 100 | 1013.1 |
| 20260508043809 | 82 | 196 | 2.0 | 2.0 | 0.00 | 0.00 | 0.00 | 100 | 1013.1 |
| 20260508043309 | 82 | 50 | 0.0 | 0.0 | 0.00 | 0.00 | 0.00 | 100 | 1013.1 |
| 20260508042809 | 82 | 50 | 0.0 | 0.0 | 0.00 | 0.00 | 0.00 | 100 | 1013.1 |
| 20260508042309 | 82 | 50 | 0.0 | 0.0 | 0.00 | 0.00 | 0.00 | 100 | 1013.0 |
| 20260508041809 | 82 | 50 | 0.0 | 0.0 | 0.00 | 0.00 | 0.00 | 100 | 1013.1 |
| 20260508041309 | 82 | 50 | 0.0 | 0.0 | 0.00 | 0.00 | 0.00 | 100 | 1013.0 |
| 20260508040809 | 82 | 50 | 0.0 | 0.0 | 0.00 | 0.00 | 0.00 | 100 | 1013.1 |
| 20260508040309 | 82 | 50 | 0.0 | 0.0 | 0.00 | 0.00 | 0.00 | 100 | 1013.2 |
| 20260508035809 | 82 | 50 | 0.0 | 0.0 | 0.00 | 0.00 | 0.00 | 100 | 1013.1 |
| 20260508035309 | 82 | 50 | 0.0 | 0.0 | 0.00 | 0.00 | 0.00 | 100 | 1013.1 |
| 20260508034850 | 82 | 50 | 0.0 | 0.0 | 0.00 | 0.00 | 0.00 | 100 | 1013.2 |
| 20260508034809 | 82 | 50 | 0.0 | 0.0 | 0.00 | 0.00 | 0.00 | 100 | 1013.2 |
| 20260508034309 | 82 | 50 | 0.0 | 0.0 | 0.00 | 0.00 | 0.00 | 100 | 1013.4 |
| 20260508033809 | 82 | 50 | 0.0 | 0.0 | 0.00 | 0.00 | 0.00 | 100 | 1013.3 |
| 20260508033309 | 82 | 50 | 0.0 | 0.0 | 0.00 | 0.00 | 0.00 | 100 | 1013.3 |
| 20260508032809 | 82 | 50 | 0.0 | 0.0 | 0.00 | 0.00 | 0.00 | 100 | 1013.3 |
| 20260508032309 | 82 | 50 | 0.0 | 0.0 | 0.00 | 0.00 | 0.00 | 100 | 1013.2 |
| 20260508031809 | 82 | 50 | 0.0 | 0.0 | 0.00 | 0.00 | 0.00 | 100 | 1013.1 |
| 20260508031309 | 82 | 50 | 0.0 | 0.0 | 0.00 | 0.00 | 0.00 | 100 | 1013.0 |
| 20260508030810 | 82 | 50 | 0.0 | 0.0 | 0.00 | 0.00 | 0.00 | 100 | 1013.0 |
| 20260508030309 | 82 | 50 | 0.0 | 0.0 | 0.00 | 0.00 | 0.00 | 100 | 1013.0 |
| 20260508025809 | 82 | 50 | 0.0 | 0.0 | 0.00 | 0.00 | 0.00 | 100 | 1013.0 |
| 20260508025309 | 82 | 50 | 0.0 | 0.0 | 0.00 | 0.00 | 0.00 | 100 | 1012.8 |
| 20260508024809 | 82 | 50 | 0.0 | 0.0 | 0.00 | 0.00 | 0.00 | 100 | 1012.8 |
| 20260508024309 | 83 | 50 | 0.0 | 0.0 | 0.00 | 0.00 | 0.00 | 100 | 1012.8 |
| 20260508023809 | 83 | 50 | 0.0 | 0.0 | 0.00 | 0.00 | 0.00 | 100 | 1012.8 |
| 20260508023310 | 83 | 50 | 0.0 | 0.0 | 0.00 | 0.00 | 0.00 | 100 | 1012.9 |
| 20260508022809 | 83 | 50 | 0.0 | 0.0 | 0.00 | 0.00 | 0.00 | 100 | 1012.8 |
| 20260508022309 | 83 | 50 | 0.0 | 0.0 | 0.00 | 0.00 | 0.00 | 100 | 1012.9 |
| 20260508021809 | 83 | 50 | 0.0 | 0.0 | 0.00 | 0.00 | 0.00 | 100 | 1012.9 |
| 20260508021309 | 83 | 50 | 0.0 | 0.0 | 0.00 | 0.00 | 0.00 | 100 | 1012.8 |
| 20260508020809 | 83 | 50 | 0.0 | 0.0 | 0.00 | 0.00 | 0.00 | 100 | 1012.7 |
| 20260508020309 | 83 | 50 | 0.0 | 0.0 | 0.00 | 0.00 | 0.00 | 100 | 1012.8 |
| 20260508015809 | 83 | 50 | 0.0 | 0.0 | 0.00 | 0.00 | 0.00 | 100 | 1012.2 |
| 20260508015309 | 83 | 50 | 0.0 | 0.0 | 0.00 | 0.00 | 0.00 | 100 | 1010.5 |
| 20260508014809 | 83 | 50 | 0.0 | 0.0 | 0.00 | 0.00 | 0.00 | 100 | 1010.9 |
| 20260508014309 | 83 | 50 | 0.0 | 0.0 | 0.00 | 0.00 | 0.00 | 100 | 1010.5 |
| 20260508013809 | 83 | 50 | 0.0 | 0.0 | 0.00 | 0.00 | 0.00 | 100 | 1010.9 |
| 20260508013310 | 83 | 50 | 0.0 | 0.0 | 0.00 | 0.00 | 0.00 | 100 | 1010.7 |
| 20260508012810 | 83 | 50 | 0.0 | 0.0 | 0.00 | 0.00 | 0.00 | 100 | 1010.5 |
| 20260508012310 | 83 | 50 | 0.0 | 0.0 | 0.00 | 0.00 | 0.00 | 100 | 1010.6 |
| 20260508011810 | 83 | 50 | 0.0 | 0.0 | 0.00 | 0.00 | 0.00 | 100 | 1010.7 |
| 20260508011310 | 83 | 50 | 0.0 | 0.0 | 0.00 | 0.00 | 0.00 | 100 | 1011.0 |
| 20260508010810 | 83 | 50 | 0.0 | 0.0 | 0.00 | 0.00 | 0.00 | 100 | 1010.5 |
| 20260508010310 | 83 | 50 | 0.0 | 1.0 | 0.00 | 0.00 | 0.00 | 100 | 1011.0 |
| 20260508005810 | 83 | 50 | 0.0 | 0.0 | 0.00 | 0.00 | 0.00 | 100 | 1011.0 |
| 20260508005310 | 83 | 50 | 0.0 | 0.0 | 0.00 | 0.00 | 0.00 | 100 | 1010.8 |
| 20260508004810 | 83 | 50 | 0.0 | 2.0 | 0.00 | 0.00 | 0.00 | 100 | 1010.6 |
| 20260508004310 | 84 | 319 | 0.0 | 0.0 | 0.00 | 0.00 | 0.00 | 100 | 1010.8 |
| 20260508003810 | 84 | 319 | 0.0 | 3.0 | 0.00 | 0.00 | 0.00 | 100 | 1010.5 |
| 20260508003310 | 84 | 323 | 2.0 | 4.0 | 0.00 | 0.00 | 0.00 | 100 | 1010.8 |
| 20260508002810 | 84 | 291 | 0.0 | 0.0 | 0.00 | 0.00 | 0.00 | 100 | 1012.6 |
| 20260508002310 | 84 | 291 | 0.0 | 3.0 | 0.00 | 0.00 | 0.00 | 100 | 1010.8 |
| 20260508001810 | 84 | 271 | 0.0 | 1.0 | 0.00 | 0.00 | 0.00 | 100 | 1012.6 |
| 20260508001310 | 84 | 296 | 0.0 | 2.0 | 0.00 | 0.00 | 0.00 | 100 | 1012.6 |
| 20260508000810 | 84 | 261 | 0.0 | 0.0 | 0.00 | 0.00 | 0.00 | 100 | 1012.5 |
| 20260508000312 | 84 | 5 | 0.0 | 0.0 | 0.00 | 0.00 | 0.00 | 100 | 1012.6 |
| 20260507235810 | 85 | 5 | 0.0 | 4.0 | 0.00 | 0.00 | 0.00 | 100 | 1012.4 |
| 20260507235310 | 85 | 330 | 0.0 | 3.0 | 0.00 | 0.00 | 0.00 | 100 | 1012.6 |
| 20260507234810 | 85 | 40 | 1.0 | 4.0 | 0.00 | 0.00 | 0.00 | 100 | 1012.6 |
| 20260507234310 | 85 | 281 | 3.0 | 4.0 | 0.00 | 0.00 | 0.00 | 100 | 1012.5 |
| 20260507233810 | 85 | 300 | 0.0 | 3.0 | 0.00 | 0.00 | 0.00 | 100 | 1012.6 |
| 20260507233310 | 86 | 278 | 0.0 | 4.0 | 0.00 | 0.00 | 0.00 | 100 | 1012.6 |
| 20260507232810 | 86 | 227 | 0.0 | 0.0 | 0.00 | 0.00 | 0.00 | 100 | 1012.5 |
| 20260507232310 | 86 | 227 | 0.0 | 3.0 | 0.00 | 0.00 | 0.00 | 100 | 1012.5 |
| 20260507231810 | 86 | 319 | 1.0 | 4.0 | 0.00 | 0.00 | 0.00 | 100 | 1012.5 |
| 20260507231310 | 86 | 250 | 0.0 | 0.0 | 0.00 | 0.00 | 0.00 | 100 | 1012.4 |
| 20260507230810 | 87 | 250 | 0.0 | 4.0 | 0.00 | 0.00 | 0.00 | 100 | 1012.5 |
| 20260507230310 | 86 | 14 | 3.0 | 3.0 | 0.00 | 0.00 | 0.00 | 100 | 1012.6 |
| 20260507225810 | 86 | 347 | 0.0 | 3.0 | 0.00 | 0.00 | 0.00 | 100 | 1012.7 |
| 20260507225310 | 86 | 268 | 3.0 | 6.0 | 0.00 | 0.00 | 0.00 | 100 | 1012.6 |
| 20260507224810 | 87 | 327 | 1.0 | 6.0 | 0.00 | 0.00 | 0.00 | 100 | 1012.5 |
| 20260507224310 | 87 | 237 | 1.0 | 5.0 | 0.00 | 0.00 | 0.00 | 100 | 1012.6 |
| 20260507223810 | 87 | 316 | 1.0 | 5.0 | 0.00 | 0.00 | 0.00 | 100 | 1012.5 |
| 20260507223310 | 87 | 225 | 0.0 | 4.0 | 0.00 | 0.00 | 0.00 | 100 | 1012.4 |
| 20260507222810 | 87 | 316 | 2.0 | 5.0 | 0.00 | 0.00 | 0.00 | 100 | 1012.5 |
| 20260507222310 | 88 | 330 | 3.0 | 6.0 | 0.00 | 0.00 | 0.00 | 100 | 1012.4 |
| 20260507221810 | 88 | 312 | 5.0 | 5.0 | 0.00 | 0.00 | 0.00 | 100 | 1012.4 |
| 20260507221310 | 88 | 195 | 0.0 | 7.0 | 0.00 | 0.00 | 0.00 | 100 | 1012.3 |
| 20260507220810 | 88 | 288 | 0.0 | 5.0 | 0.00 | 0.00 | 0.00 | 100 | 1012.3 |
| 20260507220310 | 88 | 288 | 3.0 | 6.0 | 0.00 | 0.00 | 0.00 | 100 | 1012.4 |
| 20260507215810 | 87 | 327 | 3.0 | 6.0 | 0.00 | 0.00 | 0.00 | 100 | 1012.4 |
| 20260507215310 | 88 | 74 | 2.0 | 10.0 | 0.00 | 0.00 | 0.00 | 100 | 1012.4 |
| 20260507214810 | 88 | 198 | 0.0 | 6.0 | 0.00 | 0.00 | 0.00 | 100 | 1012.5 |
| 20260507214310 | 88 | 56 | 0.0 | 5.0 | 0.00 | 0.00 | 0.00 | 100 | 1012.4 |
| 20260507213810 | 87 | 222 | 1.0 | 5.0 | 0.00 | 0.00 | 0.00 | 100 | 1012.4 |
| 20260507213310 | 87 | 347 | 4.0 | 7.0 | 0.00 | 0.00 | 0.00 | 100 | 1012.5 |
| 20260507212810 | 87 | 229 | 1.0 | 8.0 | 0.00 | 0.00 | 0.00 | 100 | 1012.5 |
| 20260507212310 | 87 | 15 | 3.0 | 9.0 | 0.00 | 0.00 | 0.00 | 100 | 1012.4 |
| 20260507211810 | 88 | 223 | 3.0 | 7.0 | 0.00 | 0.00 | 0.00 | 100 | 1012.5 |
| 20260507211310 | 88 | 281 | 0.0 | 7.0 | 0.00 | 0.00 | 0.00 | 100 | 1012.6 |
| 20260507210810 | 88 | 215 | 0.0 | 8.0 | 0.00 | 0.00 | 0.00 | 100 | 1012.6 |
| 20260507210310 | 88 | 282 | 5.0 | 6.0 | 0.00 | 0.00 | 0.00 | 100 | 1012.7 |
| 20260507205810 | 88 | 272 | 3.0 | 8.0 | 0.00 | 0.00 | 0.00 | 100 | 1012.6 |
| 20260507205310 | 88 | 26 | 3.0 | 7.0 | 0.00 | 0.00 | 0.00 | 100 | 1012.7 |
| 20260507204810 | 88 | 331 | 5.0 | 7.0 | 0.00 | 0.00 | 0.00 | 100 | 1012.7 |
| 20260507204310 | 89 | 18 | 0.0 | 6.0 | 0.00 | 0.00 | 0.00 | 100 | 1012.7 |
| 20260507203810 | 89 | 329 | 0.0 | 6.0 | 0.00 | 0.00 | 0.00 | 100 | 1012.6 |
| 20260507203310 | 89 | 236 | 2.0 | 4.0 | 0.00 | 0.00 | 0.00 | 100 | 1012.7 |
| 20260507202810 | 89 | 320 | 1.0 | 4.0 | 0.00 | 0.00 | 0.00 | 100 | 1012.8 |
| 20260507202310 | 89 | 18 | 0.0 | 6.0 | 0.00 | 0.00 | 0.00 | 100 | 1012.8 |
| 20260507201810 | 89 | 222 | 3.0 | 7.0 | 0.00 | 0.00 | 0.00 | 100 | 1012.9 |
| 20260507201310 | 89 | 220 | 0.0 | 5.0 | 0.00 | 0.00 | 0.00 | 100 | 1012.9 |
| 20260507200810 | 89 | 334 | 1.0 | 8.0 | 0.00 | 0.00 | 0.00 | 100 | 1012.9 |
| 20260507200310 | 89 | 324 | 0.0 | 7.0 | 0.00 | 0.00 | 0.00 | 100 | 1013.0 |
| 20260507195810 | 89 | 320 | 2.0 | 4.0 | 0.00 | 0.00 | 0.00 | 100 | 1013.0 |
| 20260507195310 | 89 | 5 | 1.0 | 5.0 | 0.00 | 0.00 | 0.00 | 100 | 1012.8 |
| 20260507194810 | 89 | 253 | 0.0 | 4.0 | 0.00 | 0.00 | 0.00 | 100 | 1013.0 |
| 20260507194310 | 89 | 337 | 3.0 | 6.0 | 0.00 | 0.00 | 0.00 | 100 | 1013.0 |
| 20260507193810 | 89 | 255 | 1.0 | 6.0 | 0.00 | 0.00 | 0.00 | 100 | 1013.2 |
| 20260507193310 | 90 | 22 | 1.0 | 6.0 | 0.00 | 0.00 | 0.00 | 100 | 1013.3 |
| 20260507192810 | 89 | 143 | 0.0 | 4.0 | 0.00 | 0.00 | 0.00 | 100 | 1013.3 |
| 20260507192310 | 89 | 222 | 0.0 | 8.0 | 0.00 | 0.00 | 0.00 | 100 | 1013.5 |
| 20260507191810 | 89 | 133 | 1.0 | 7.0 | 0.00 | 0.00 | 0.00 | 100 | 1013.6 |
| 20260507191310 | 89 | 147 | 2.0 | 8.0 | 0.00 | 0.00 | 0.00 | 100 | 1013.6 |
| 20260507190810 | 89 | 262 | 5.0 | 6.0 | 0.00 | 0.00 | 0.00 | 100 | 1013.7 |
| 20260507190310 | 89 | 305 | 2.0 | 9.0 | 0.00 | 0.00 | 0.00 | 100 | 1013.7 |
| 20260507185810 | 89 | 19 | 3.0 | 8.0 | 0.00 | 0.00 | 0.00 | 100 | 1013.8 |
| 20260507185310 | 89 | 319 | 1.0 | 8.0 | 0.00 | 0.00 | 0.00 | 100 | 1013.7 |
| 20260507184810 | 89 | 303 | 2.0 | 9.0 | 0.00 | 0.00 | 0.00 | 100 | 1013.8 |
| 20260507184310 | 88 | 42 | 3.0 | 8.0 | 0.00 | 0.00 | 0.00 | 100 | 1013.9 |
| 20260507183810 | 88 | 286 | 6.0 | 7.0 | 0.00 | 0.00 | 0.00 | 100 | 1013.9 |
| 20260507183310 | 88 | 257 | 5.0 | 9.0 | 0.00 | 0.00 | 0.00 | 100 | 1014.0 |
| 20260507182810 | 88 | 289 | 6.0 | 8.0 | 0.00 | 0.00 | 0.00 | 100 | 1014.0 |
| 20260507182310 | 89 | 355 | 4.0 | 8.0 | 0.00 | 0.00 | 0.00 | 100 | 1014.1 |
| 20260507181810 | 89 | 257 | 3.0 | 7.0 | 0.00 | 0.00 | 0.00 | 100 | 1014.2 |
| 20260507181310 | 89 | 255 | 5.0 | 7.0 | 0.00 | 0.00 | 0.00 | 100 | 1014.3 |
| 20260507180810 | 89 | 285 | 3.0 | 9.0 | 0.00 | 0.00 | 0.00 | 100 | 1014.3 |
| 20260507180310 | 89 | 209 | 1.0 | 5.0 | 0.00 | 0.00 | 0.00 | 100 | 1014.3 |
| 20260507175810 | 88 | 217 | 4.0 | 6.0 | 0.00 | 0.00 | 0.00 | 100 | 1014.3 |
| 20260507175310 | 88 | 298 | 3.0 | 7.0 | 0.00 | 0.00 | 0.00 | 100 | 1014.3 |
| 20260507174810 | 88 | 255 | 3.0 | 8.0 | 0.00 | 0.00 | 0.00 | 100 | 1014.4 |
| 20260507174310 | 88 | 222 | 3.0 | 8.0 | 0.00 | 0.00 | 0.00 | 100 | 1014.4 |
| 20260507173810 | 89 | 172 | 2.0 | 7.0 | 0.00 | 0.00 | 0.00 | 100 | 1014.5 |
| 20260507173310 | 89 | 217 | 5.0 | 9.0 | 0.00 | 0.00 | 0.00 | 100 | 1014.4 |
| 20260507172810 | 89 | 322 | 1.0 | 8.0 | 0.00 | 0.00 | 0.00 | 100 | 1014.4 |
| 20260507172310 | 89 | 295 | 3.0 | 8.0 | 0.00 | 0.00 | 0.00 | 100 | 1014.3 |
| 20260507171810 | 88 | 205 | 5.0 | 10.0 | 0.00 | 0.00 | 0.00 | 100 | 1014.5 |
| 20260507171310 | 88 | 344 | 2.0 | 6.0 | 0.00 | 0.00 | 0.00 | 100 | 1014.4 |
| 20260507170810 | 88 | 215 | 0.0 | 12.0 | 0.00 | 0.00 | 0.00 | 100 | 1014.2 |
| 20260507170310 | 87 | 191 | 2.0 | 14.0 | 0.00 | 0.00 | 0.00 | 100 | 1014.2 |
| 20260507165810 | 88 | 202 | 5.0 | 10.0 | 0.00 | 0.00 | 0.00 | 100 | 1014.2 |
| 20260507165310 | 87 | 243 | 3.0 | 11.0 | 0.00 | 0.00 | 0.00 | 100 | 1014.2 |
| 20260507164810 | 88 | 264 | 4.0 | 9.0 | 0.00 | 0.00 | 0.00 | 100 | 1014.2 |
| 20260507164310 | 88 | 157 | 3.0 | 10.0 | 0.00 | 0.00 | 0.00 | 100 | 1014.2 |
| 20260507163810 | 88 | 222 | 4.0 | 10.0 | 0.00 | 0.00 | 0.00 | 100 | 1014.2 |
| 20260507163310 | 88 | 181 | 2.0 | 11.0 | 0.00 | 0.00 | 0.00 | 100 | 1014.3 |
| 20260507162810 | 87 | 247 | 2.0 | 9.0 | 0.00 | 0.00 | 0.00 | 100 | 1014.3 |
| 20260507162310 | 87 | 206 | 2.0 | 13.0 | 0.00 | 0.00 | 0.00 | 100 | 1014.4 |
| 20260507161810 | 87 | 213 | 3.0 | 12.0 | 0.00 | 0.00 | 0.00 | 100 | 1014.4 |
| 20260507161310 | 88 | 229 | 8.0 | 11.0 | 0.00 | 0.00 | 0.00 | 100 | 1014.5 |
| 20260507160810 | 88 | 234 | 3.0 | 10.0 | 0.00 | 0.00 | 0.00 | 100 | 1014.5 |
| 20260507160310 | 88 | 239 | 3.0 | 10.0 | 0.00 | 0.00 | 0.00 | 100 | 1014.6 |
| 20260507155810 | 88 | 264 | 6.0 | 10.0 | 0.00 | 0.00 | 0.00 | 100 | 1014.7 |
| 20260507155310 | 88 | 236 | 1.0 | 12.0 | 0.00 | 0.00 | 0.00 | 100 | 1014.6 |
| 20260507154810 | 88 | 282 | 1.0 | 7.0 | 0.00 | 0.00 | 0.00 | 100 | 1014.7 |
| 20260507154311 | 88 | 277 | 3.0 | 10.0 | 0.00 | 0.00 | 0.00 | 100 | 1014.7 |
| 20260507153810 | 88 | 288 | 0.0 | 11.0 | 0.00 | 0.00 | 0.00 | 100 | 1014.7 |
| 20260507153310 | 88 | 295 | 2.0 | 8.0 | 0.00 | 0.00 | 0.00 | 100 | 1014.7 |
| 20260507152810 | 88 | 261 | 7.0 | 13.0 | 0.00 | 0.00 | 0.00 | 100 | 1014.7 |
| 20260507152310 | 88 | 240 | 2.0 | 13.0 | 0.00 | 0.00 | 0.00 | 100 | 1014.6 |
| 20260507151811 | 88 | 268 | 0.0 | 11.0 | 0.00 | 0.00 | 0.00 | 100 | 1014.7 |
| 20260507151310 | 88 | 265 | 5.0 | 9.0 | 0.00 | 0.00 | 0.00 | 100 | 1014.8 |
| 20260507150810 | 88 | 219 | 1.0 | 10.0 | 0.00 | 0.00 | 0.00 | 100 | 1014.7 |
| 20260507150310 | 87 | 247 | 4.0 | 12.0 | 0.00 | 0.00 | 0.00 | 100 | 1014.6 |
| 20260507145810 | 87 | 244 | 3.0 | 8.0 | 0.00 | 0.00 | 0.00 | 100 | 1014.6 |
| 20260507145310 | 87 | 171 | 3.0 | 9.0 | 0.00 | 0.00 | 0.00 | 100 | 1014.7 |
| 20260507144810 | 87 | 151 | 3.0 | 7.0 | 0.00 | 0.00 | 0.00 | 100 | 1014.6 |
| 20260507144310 | 87 | 54 | 1.0 | 6.0 | 0.00 | 0.00 | 0.00 | 100 | 1014.6 |
| 20260507143811 | 87 | 157 | 0.0 | 8.0 | 0.00 | 0.00 | 0.00 | 100 | 1014.6 |
| 20260507143310 | 87 | 296 | 2.0 | 6.0 | 0.00 | 0.00 | 0.00 | 100 | 1014.5 |
| 20260507142810 | 87 | 237 | 0.0 | 10.0 | 0.00 | 0.00 | 0.00 | 100 | 1014.5 |
| 20260507142310 | 87 | 277 | 3.0 | 10.0 | 0.00 | 0.00 | 0.00 | 100 | 1014.5 |
| 20260507141810 | 87 | 277 | 2.0 | 8.0 | 0.00 | 0.00 | 0.00 | 100 | 1014.5 |
| 20260507141310 | 87 | 212 | 4.0 | 8.0 | 0.00 | 0.00 | 0.00 | 100 | 1014.4 |
| 20260507140811 | 86 | 175 | 3.0 | 9.0 | 0.00 | 0.00 | 0.00 | 100 | 1014.3 |
| 20260507140311 | 86 | 243 | 2.0 | 7.0 | 0.00 | 0.00 | 0.00 | 100 | 1014.4 |
| 20260507135811 | 86 | 264 | 7.0 | 7.0 | 0.00 | 0.00 | 0.00 | 100 | 1014.4 |
| 20260507135311 | 86 | 299 | 6.0 | 9.0 | 0.00 | 0.00 | 0.00 | 100 | 1014.4 |
| 20260507134811 | 86 | 223 | 4.0 | 7.0 | 0.00 | 0.00 | 0.00 | 100 | 1014.5 |
| 20260507134311 | 85 | 226 | 5.0 | 6.0 | 0.00 | 0.00 | 0.00 | 100 | 1014.5 |
| 20260507133811 | 85 | 104 | 1.0 | 5.0 | 0.00 | 0.00 | 0.00 | 100 | 1014.6 |
| 20260507133311 | 84 | 236 | 1.0 | 6.0 | 0.00 | 0.00 | 0.00 | 100 | 1014.5 |
| 20260507132811 | 84 | 309 | 0.0 | 5.0 | 0.00 | 0.00 | 0.00 | 100 | 1014.5 |
| 20260507132311 | 83 | 275 | 0.0 | 7.0 | 0.00 | 0.00 | 0.00 | 100 | 1014.3 |
| 20260507131811 | 83 | 315 | 3.0 | 5.0 | 0.00 | 0.00 | 0.00 | 100 | 1014.4 |
| 20260507131311 | 83 | 212 | 4.0 | 6.0 | 0.00 | 0.00 | 0.00 | 100 | 1014.3 |
| 20260507130811 | 82 | 205 | 3.0 | 6.0 | 0.00 | 0.00 | 0.00 | 100 | 1014.2 |
| 20260507130311 | 82 | 232 | 1.0 | 10.0 | 0.00 | 0.00 | 0.00 | 100 | 1014.1 |
| 20260507125811 | 82 | 215 | 2.0 | 6.0 | 0.00 | 0.00 | 0.00 | 100 | 1014.0 |
| 20260507125311 | 82 | 253 | 0.0 | 5.0 | 0.00 | 0.00 | 0.00 | 100 | 1014.0 |
| 20260507124811 | 82 | 216 | 1.0 | 6.0 | 0.00 | 0.00 | 0.00 | 100 | 1013.8 |
| 20260507124311 | 81 | 202 | 5.0 | 6.0 | 0.00 | 0.00 | 0.00 | 100 | 1013.8 |
| 20260507123811 | 81 | 172 | 0.0 | 7.0 | 0.00 | 0.00 | 0.00 | 100 | 1013.8 |
| 20260507123311 | 81 | 203 | 2.0 | 7.0 | 0.00 | 0.00 | 0.00 | 100 | 1013.7 |
| 20260507122811 | 81 | 206 | 0.0 | 6.0 | 0.00 | 0.00 | 0.00 | 100 | 1013.6 |
| 20260507122311 | 81 | 192 | 1.0 | 5.0 | 0.00 | 0.00 | 0.00 | 100 | 1013.7 |
| 20260507121811 | 81 | 202 | 0.0 | 6.0 | 0.00 | 0.00 | 0.00 | 100 | 1013.6 |
| 20260507121311 | 81 | 199 | 0.0 | 6.0 | 0.00 | 0.00 | 0.00 | 100 | 1013.6 |
| 20260507120811 | 80 | 202 | 1.0 | 3.0 | 0.00 | 0.00 | 0.00 | 100 | 1013.6 |
| 20260507120311 | 80 | 217 | 1.0 | 2.0 | 0.00 | 0.00 | 0.00 | 100 | 1013.6 |
| 20260507115811 | 80 | 164 | 0.0 | 0.0 | 0.00 | 0.00 | 0.00 | 100 | 1013.7 |
| 20260507115311 | 80 | 164 | 0.0 | 0.0 | 0.00 | 0.00 | 0.00 | 100 | 1013.8 |
| 20260507114811 | 80 | 164 | 0.0 | 0.0 | 0.00 | 0.00 | 0.00 | 100 | 1013.7 |
| 20260507114311 | 80 | 164 | 0.0 | 0.0 | 0.00 | 0.00 | 0.00 | 100 | 1013.6 |
| 20260507113811 | 80 | 164 | 0.0 | 2.0 | 0.00 | 0.00 | 0.00 | 100 | 1013.6 |
| 20260507113311 | 79 | 265 | 0.0 | 0.0 | 0.00 | 0.00 | 0.00 | 100 | 1013.6 |
| 20260507112811 | 79 | 265 | 0.0 | 0.0 | 0.00 | 0.00 | 0.00 | 100 | 1013.6 |
| 20260507112311 | 79 | 265 | 0.0 | 0.0 | 0.00 | 0.00 | 0.00 | 100 | 1013.6 |
| 20260507111811 | 79 | 265 | 0.0 | 0.0 | 0.00 | 0.00 | 0.00 | 100 | 1013.5 |
| 20260507111311 | 79 | 265 | 0.0 | 0.0 | 0.00 | 0.00 | 0.00 | 100 | 1013.3 |
| 20260507110811 | 79 | 265 | 0.0 | 0.0 | 0.00 | 0.00 | 0.00 | 100 | 1013.1 |
| 20260507110311 | 79 | 265 | 0.0 | 0.0 | 0.00 | 0.00 | 0.00 | 100 | 1013.4 |
| 20260507105811 | 79 | 265 | 0.0 | 0.0 | 0.00 | 0.00 | 0.00 | 100 | 1013.3 |
| 20260507105311 | 79 | 265 | 0.0 | 0.0 | 0.00 | 0.00 | 0.00 | 100 | 1013.3 |
| 20260507104811 | 79 | 265 | 0.0 | 0.0 | 0.00 | 0.00 | 0.00 | 100 | 1013.3 |
| 20260507104311 | 79 | 265 | 0.0 | 0.0 | 0.00 | 0.00 | 0.00 | 100 | 1013.3 |
| 20260507103811 | 79 | 265 | 0.0 | 0.0 | 0.00 | 0.00 | 0.00 | 100 | 1013.2 |
| 20260507103311 | 79 | 265 | 0.0 | 0.0 | 0.00 | 0.00 | 0.00 | 100 | 1013.3 |
| 20260507102811 | 79 | 265 | 0.0 | 0.0 | 0.00 | 0.00 | 0.00 | 100 | 1013.2 |
| 20260507102311 | 79 | 265 | 0.0 | 0.0 | 0.00 | 0.00 | 0.00 | 100 | 1013.1 |
| 20260507101811 | 79 | 265 | 0.0 | 0.0 | 0.00 | 0.00 | 0.00 | 100 | 1013.1 |
| 20260507101311 | 79 | 265 | 0.0 | 0.0 | 0.00 | 0.00 | 0.00 | 100 | 1013.1 |
| 20260507100811 | 79 | 265 | 0.0 | 0.0 | 0.00 | 0.00 | 0.00 | 100 | 1013.0 |
| 20260507100311 | 79 | 265 | 0.0 | 0.0 | 0.00 | 0.00 | 0.00 | 100 | 1012.9 |
| 20260507095811 | 79 | 265 | 0.0 | 0.0 | 0.00 | 0.00 | 0.00 | 100 | 1012.9 |
| 20260507095311 | 79 | 265 | 0.0 | 0.0 | 0.00 | 0.00 | 0.00 | 100 | 1013.0 |
| 20260507094811 | 79 | 265 | 0.0 | 0.0 | 0.00 | 0.00 | 0.00 | 100 | 1012.9 |
| 20260507094311 | 79 | 265 | 0.0 | 0.0 | 0.00 | 0.00 | 0.00 | 100 | 1012.9 |
| 20260507093811 | 79 | 265 | 0.0 | 0.0 | 0.00 | 0.00 | 0.00 | 100 | 1012.9 |
| 20260507093311 | 79 | 265 | 0.0 | 0.0 | 0.00 | 0.00 | 0.00 | 100 | 1012.9 |
| 20260507092811 | 79 | 265 | 0.0 | 0.0 | 0.00 | 0.00 | 0.00 | 100 | 1012.8 |
| 20260507092311 | 79 | 265 | 0.0 | 0.0 | 0.00 | 0.00 | 0.00 | 100 | 1012.8 |
| 20260507091811 | 79 | 265 | 0.0 | 0.0 | 0.00 | 0.00 | 0.00 | 100 | 1012.7 |
| 20260507091312 | 79 | 265 | 0.0 | 0.0 | 0.00 | 0.00 | 0.00 | 100 | 1012.7 |
| 20260507090811 | 79 | 265 | 0.0 | 0.0 | 0.00 | 0.00 | 0.00 | 100 | 1012.8 |
| 20260507090311 | 79 | 265 | 0.0 | 0.0 | 0.00 | 0.00 | 0.00 | 100 | 1012.8 |
| 20260507085811 | 79 | 265 | 0.0 | 0.0 | 0.00 | 0.00 | 0.00 | 100 | 1012.7 |
| 20260507085311 | 79 | 265 | 0.0 | 0.0 | 0.00 | 0.00 | 0.00 | 100 | 1012.6 |
| 20260507084811 | 79 | 265 | 0.0 | 0.0 | 0.00 | 0.00 | 0.00 | 100 | 1012.7 |
| 20260507084311 | 80 | 265 | 0.0 | 0.0 | 0.00 | 0.00 | 0.00 | 100 | 1012.9 |
| 20260507083811 | 80 | 265 | 0.0 | 0.0 | 0.00 | 0.00 | 0.00 | 100 | 1013.0 |
| 20260507083311 | 79 | 265 | 0.0 | 0.0 | 0.00 | 0.00 | 0.00 | 100 | 1013.0 |
| 20260507082811 | 79 | 265 | 0.0 | 0.0 | 0.00 | 0.00 | 0.00 | 100 | 1013.0 |
| 20260507082311 | 79 | 265 | 0.0 | 0.0 | 0.00 | 0.00 | 0.00 | 100 | 1013.1 |
| 20260507081811 | 79 | 265 | 0.0 | 0.0 | 0.00 | 0.00 | 0.00 | 100 | 1013.0 |
| 20260507081311 | 79 | 265 | 0.0 | 0.0 | 0.00 | 0.00 | 0.00 | 100 | 1012.8 |
| 20260507080811 | 80 | 265 | 0.0 | 0.0 | 0.00 | 0.00 | 0.00 | 100 | 1012.8 |
| 20260507080311 | 80 | 265 | 0.0 | 0.0 | 0.00 | 0.00 | 0.00 | 100 | 1012.7 |
| 20260507075811 | 80 | 265 | 0.0 | 0.0 | 0.00 | 0.00 | 0.00 | 100 | 1012.8 |
| 20260507075311 | 80 | 265 | 0.0 | 0.0 | 0.00 | 0.00 | 0.00 | 100 | 1012.8 |
| 20260507074908 | 80 | 265 | 0.0 | 0.0 | 0.00 | 0.00 | 0.00 | 100 | 1013.2 |
| 20260507074811 | 80 | 265 | 0.0 | 0.0 | 0.00 | 0.00 | 0.00 | 100 | 1012.5 |
| 20260507074311 | 80 | 265 | 0.0 | 0.0 | 0.00 | 0.00 | 0.00 | 100 | 1012.6 |
| 20260507073811 | 80 | 265 | 0.0 | 0.0 | 0.00 | 0.00 | 0.00 | 100 | 1012.6 |
| 20260507073311 | 80 | 265 | 0.0 | 0.0 | 0.00 | 0.00 | 0.00 | 100 | 1012.7 |
| 20260507072811 | 80 | 265 | 0.0 | 0.0 | 0.00 | 0.00 | 0.00 | 100 | 1012.7 |
| 20260507072311 | 80 | 265 | 0.0 | 0.0 | 0.00 | 0.00 | 0.00 | 100 | 1012.8 |
| 20260507071811 | 80 | 265 | 0.0 | 0.0 | 0.00 | 0.00 | 0.00 | 100 | 1012.9 |
| 20260507071311 | 80 | 265 | 0.0 | 0.0 | 0.00 | 0.00 | 0.00 | 100 | 1013.0 |
| 20260507070811 | 80 | 265 | 0.0 | 0.0 | 0.00 | 0.00 | 0.00 | 100 | 1013.1 |
| 20260507070311 | 80 | 265 | 0.0 | 0.0 | 0.00 | 0.00 | 0.00 | 100 | 1013.1 |
| 20260507065811 | 80 | 265 | 0.0 | 0.0 | 0.00 | 0.00 | 0.00 | 100 | 1013.0 |